Total_Precipitation_Accumulation
2.11 2.24 2.40 2.53 2.46 2.27 2.21 2.19 2.16 1.96 1.73 1.59 1.43 1.24 1.32 1.44 1.66 1.46 1.35 1.33 1.12 0.98 0.92 0.99 1.13 1.20 1.34 1.51 1.76 2.11 2.42 2.59 2.67 2.46 2.18 2.05 2.01 1.92
1.91 2.05 2.09 2.17 2.35 2.32 2.14 2.12 2.04 1.93 1.79 1.58 1.48 1.33 1.48 1.41 1.57 1.39 1.40 1.46 1.19 1.09 0.99 0.93 0.94 0.90 0.88 0.94 1.02 1.17 1.51 1.61 1.79 1.92 1.91 1.78 1.76 1.74
1.52 1.65 1.80 2.06 2.35 2.38 2.32 2.19 2.07 1.94 1.73 1.57 1.38 1.29 1.57 1.68 1.60 1.48 1.45 1.41 1.19 1.14 1.03 0.93 0.88 0.82 0.76 0.69 0.70 0.77 0.92 1.04 1.13 1.23 1.39 1.49 1.61 1.69
1.31 1.44 1.61 1.88 2.21 2.42 2.51 2.40 2.23 2.09 1.96 1.81 1.49 1.25 1.36 1.68 1.82 1.75 1.55 1.40 1.25 1.18 1.05 0.93 0.87 0.79 0.72 0.70 0.69 0.68 0.69 0.75 0.89 0.95 1.01 1.16 1.40 1.60
1.27 1.33 1.38 1.57 1.76 1.95 2.14 2.28 2.26 2.23 2.21 1.98 1.67 1.40 1.33 1.46 1.70 1.72 1.65 1.63 1.41 1.33 1.32 1.19 1.05 0.95 0.84 0.75 0.74 0.70 0.66 0.65 0.69 0.80 0.88 0.94 1.08 1.28
1.05 1.15 1.23 1.27 1.44 1.57 1.68 1.88 2.10 2.34 2.40 2.24 1.97 1.65 1.52 1.41 1.51 1.66 1.73 1.69 1.61 1.43 1.39 1.28 1.27 1.20 1.08 0.93 0.79 0.72 0.72 0.75 0.74 0.76 0.81 0.87 0.91 1.00
0.96 0.96 1.03 1.05 1.12 1.30 1.34 1.56 1.89 2.17 2.27 2.33 2.20 1.88 1.61 1.44 1.22 1.33 1.59 1.82 1.83 1.74 1.74 1.49 1.36 1.22 1.14 1.10 1.02 0.89 0.79 0.76 0.76 0.78 0.83 0.89 0.97 1.02
0.94 0.93 0.96 0.90 0.88 0.94 1.07 1.19 1.49 1.71 1.86 1.95 1.96 1.79 1.58 1.45 1.40 1.35 1.42 1.57 1.62 1.52 1.57 1.64 1.57 1.41 1.32 1.20 1.21 1.23 1.14 1.03 0.95 0.93 0.93 0.94 1.02 1.10
0.95 0.99 0.97 0.90 0.93 0.94 0.95 0.96 1.03 1.21 1.43 1.64 1.67 1.57 1.63 1.54 1.47 1.36 1.36 1.37 1.36 1.46 1.54 1.61 1.59 1.48 1.41 1.40 1.42 1.32 1.26 1.17 1.09 1.05 1.04 1.03 1.02 1.04
0.92 0.88 0.95 0.97 0.99 1.04 0.97 1.03 0.98 0.96 1.06 1.11 1.25 1.46 1.61 1.78 1.76 1.65 1.64 1.57 1.48 1.58 1.61 1.56 1.46 1.38 1.29 1.27 1.33 1.21 1.12 1.08 1.06 1.05 1.02 1.01 0.99 1.00
0.91 0.92 0.99 1.03 1.16 1.21 1.10 1.15 1.11 1.08 1.05 1.16 1.26 1.37 1.46 1.58 1.73 1.76 1.72 1.68 1.53 1.46 1.48 1.43 1.32 1.33 1.32 1.20 1.13 1.13 1.03 0.98 0.96 0.95 0.96 0.96 0.99 1.07
1.06 1.05 1.24 1.20 1.19 1.13 1.09 1.23 1.19 1.06 0.98 1.03 1.08 1.17 1.21 1.32 1.45 1.49 1.62 1.68 1.59 1.42 1.24 1.23 1.23 1.27 1.31 1.20 1.08 1.01 0.98 1.00 0.96 0.92 0.92 0.95 1.06 1.07
1.16 1.13 1.08 1.21 1.15 1.07 1.05 1.10 1.23 1.11 1.03 1.07 1.07 1.07 1.09 1.13 1.18 1.25 1.38 1.50 1.54 1.38 1.21 1.25 1.24 1.23 1.16 1.02 0.99 0.96 0.93 0.93 0.94 0.94 0.99 1.04 1.09 1.08
1.16 1.06 0.96 1.18 1.13 1.03 0.94 0.96 1.11 1.18 1.17 1.21 1.19 1.10 1.02 1.00 0.99 1.06 1.16 1.27 1.36 1.34 1.30 1.30 1.28 1.23 1.20 1.07 0.94 0.92 0.95 0.97 0.97 0.94 0.92 1.09 1.17 1.25
1.03 1.04 1.05 1.07 0.98 0.92 1.01 1.04 1.07 1.10 1.19 1.24 1.13 0.98 0.92 0.91 0.98 1.09 1.20 1.29 1.36 1.32 1.26 1.27 1.30 1.34 1.35 1.23 1.08 0.99 0.99 0.96 0.95 0.93 0.90 0.93 1.00 1.17
0.84 0.87 0.91 0.87 0.85 0.88 0.94 1.03 1.08 1.14 1.17 1.11 1.00 0.88 0.89 0.95 0.99 1.03 1.17 1.29 1.42 1.39 1.35 1.40 1.44 1.47 1.48 1.32 1.21 1.12 1.08 1.05 1.00 1.03 1.01 0.97 0.94 0.99
1.01 0.88 0.87 0.85 0.83 0.83 0.87 0.92 0.97 0.97 1.00 0.98 0.94 0.93 0.92 0.95 0.96 0.95 1.05 1.13 1.14 1.10 1.13 1.24 1.43 1.58 1.56 1.51 1.43 1.25 1.21 1.20 1.21 1.26 1.25 1.16 1.00 0.93
1.33 1.26 1.23 1.15 1.04 0.94 0.88 0.84 0.81 0.83 0.85 0.90 0.91 0.89 0.89 0.95 1.00 1.01 1.05 1.11 1.10 1.00 0.96 1.01 1.23 1.53 1.67 1.59 1.42 1.30 1.28 1.23 1.24 1.39 1.43 1.35 1.13 0.99
1.29 1.28 1.25 1.11 0.99 0.92 0.82 0.72 0.67 0.70 0.78 0.78 0.81 0.84 0.85 0.89 0.96 0.98 0.99 1.04 1.08 1.03 0.98 1.00 1.14 1.33 1.51 1.39 1.20 1.10 1.17 1.23 1.33 1.42 1.46 1.37 1.16 1.02
0.96 0.97 0.91 0.86 0.79 0.66 0.62 0.60 0.58 0.63 0.72 0.74 0.76 0.77 0.79 0.85 0.87 0.94 0.97 0.99 1.04 1.04 1.00 0.96 0.96 1.07 1.23 1.21 1.10 0.97 0.99 1.13 1.23 1.25 1.24 1.25 1.20 1.25
0.64 0.60 0.56 0.55 0.56 0.52 0.51 0.50 0.51 0.55 0.63 0.70 0.73 0.72 0.74 0.78 0.83 0.88 0.95 1.05 1.06 1.04 1.03 0.92 0.87 1.03 1.13 1.24 1.20 0.93 0.85 1.03 1.15 1.17 1.20 1.31 1.32 1.24
0.42 0.42 0.41 0.42 0.45 0.45 0.47 0.49 0.50 0.52 0.57 0.64 0.69 0.74 0.74 0.74 0.77 0.85 0.90 0.95 0.95 0.93 0.93 0.92 0.95 1.05 1.13 1.23 1.18 1.00 0.91 0.93 1.13 1.34 1.29 1.27 1.24 1.15
0.42 0.42 0.40 0.41 0.44 0.44 0.47 0.51 0.54 0.57 0.59 0.67 0.70 0.72 0.76 0.78 0.78 0.81 0.86 0.86 0.89 0.91 0.92 0.96 1.00 1.07 1.13 1.17 1.21 1.18 1.13 1.05 1.07 1.19 1.22 1.30 1.19 0.97